| time (UTC) | temp F | wind direction | speed knots | gust knots | rain 1hr in | rain 24hr in | rain mn in | humidity % | barometer mb |
| 20260902163008 | 85 | 262 | 0.0 | 1.7 | 0.00 | 0.00 | 0.00 | 54 | 1009.3 |
| 20260902161515 | 85 | 280 | 0.0 | 1.7 | 0.00 | 0.00 | 0.00 | 53 | 1009.2 |
| 20260902160007 | 84 | 316 | 0.0 | 1.7 | 0.00 | 0.00 | 0.00 | 55 | 1009.2 |
| 20260902154512 | 84 | 312 | 0.0 | 1.7 | 0.00 | 0.00 | 0.00 | 54 | 1009.2 |
| 20260902153001 | 83 | 266 | 0.0 | 0.9 | 0.00 | 0.00 | 0.00 | 55 | 1009.4 |
| 20260902151602 | 84 | 127 | 0.0 | 1.7 | 0.00 | 0.00 | 0.00 | 55 | 1009.3 |
| 20260902150058 | 81 | 335 | 0.9 | 2.6 | 0.00 | 0.00 | 0.00 | 59 | 1009.2 |
| 20260902144653 | 80 | 304 | 0.0 | 1.7 | 0.00 | 0.00 | 0.00 | 62 | 1009.2 |
| 20260902143051 | 81 | 85 | 0.0 | 0.0 | 0.00 | 0.00 | 0.00 | 66 | 1009.2 |
| 20260902141548 | 79 | 103 | 0.0 | 0.0 | 0.00 | 0.00 | 0.00 | 68 | 1009.1 |
| 20260902140046 | 76 | 103 | 0.0 | 0.0 | 0.00 | 0.00 | 0.00 | 74 | 1008.9 |
| 20260902134543 | 76 | 103 | 0.0 | 0.0 | 0.00 | 0.00 | 0.00 | 73 | 1008.8 |
| 20260902133054 | 74 | 103 | 0.0 | 0.0 | 0.00 | 0.00 | 0.00 | 75 | 1008.5 |
| 20260902131541 | 75 | 103 | 0.0 | 0.0 | 0.00 | 0.00 | 0.00 | 73 | 1008.4 |
| 20260902130040 | 75 | 103 | 0.0 | 0.0 | 0.00 | 0.00 | 0.00 | 72 | 1008.4 |
| 20260902124539 | 75 | 103 | 0.0 | 0.0 | 0.00 | 0.00 | 0.00 | 72 | 1008.5 |
| 20260902123038 | 74 | 103 | 0.0 | 0.9 | 0.00 | 0.00 | 0.00 | 72 | 1008.3 |
| 20260902121537 | 74 | 103 | 0.0 | 0.0 | 0.00 | 0.00 | 0.00 | 74 | 1008.3 |
| 20260902120037 | 73 | 103 | 0.0 | 0.0 | 0.00 | 0.00 | 0.00 | 75 | 1008.4 |
| 20260902114541 | 73 | 103 | 0.0 | 0.0 | 0.00 | 0.00 | 0.00 | 77 | 1008.3 |
| 20260902113049 | 73 | 103 | 0.0 | 0.0 | 0.00 | 0.00 | 0.00 | 74 | 1008.3 |
| 20260902111531 | 74 | 103 | 0.0 | 0.0 | 0.00 | 0.00 | 0.00 | 73 | 1008.2 |
| 20260902110029 | 75 | 103 | 0.0 | 0.0 | 0.00 | 0.00 | 0.00 | 71 | 1008.2 |
| 20260902104535 | 76 | 103 | 0.0 | 0.0 | 0.00 | 0.00 | 0.00 | 68 | 1008.3 |
| 20260902103030 | 76 | 101 | 0.0 | 0.9 | 0.00 | 0.00 | 0.00 | 67 | 1008.4 |
| 20260902101535 | 76 | 93 | 0.0 | 0.9 | 0.00 | 0.00 | 0.00 | 68 | 1008.5 |
| 20260902100026 | 75 | 97 | 0.0 | 0.0 | 0.00 | 0.00 | 0.00 | 68 | 1008.4 |
| 20260902094526 | 75 | 97 | 0.0 | 0.0 | 0.00 | 0.00 | 0.00 | 69 | 1008.4 |
| 20260902093027 | 75 | 97 | 0.0 | 0.0 | 0.00 | 0.00 | 0.00 | 70 | 1008.4 |
| 20260902091532 | 76 | 97 | 0.0 | 0.9 | 0.00 | 0.00 | 0.00 | 67 | 1008.4 |
| 20260902090024 | 75 | 97 | 0.0 | 0.9 | 0.00 | 0.00 | 0.00 | 70 | 1008.3 |
| 20260902084523 | 75 | 97 | 0.0 | 0.0 | 0.00 | 0.00 | 0.00 | 71 | 1008.2 |
| 20260902083021 | 76 | 97 | 0.0 | 0.0 | 0.00 | 0.00 | 0.00 | 68 | 1008.2 |
| 20260902081523 | 76 | 97 | 0.0 | 0.0 | 0.00 | 0.00 | 0.00 | 67 | 1008.2 |
| 20260902080020 | 77 | 97 | 0.0 | 0.0 | 0.00 | 0.00 | 0.00 | 67 | 1008.2 |
| 20260902074519 | 76 | 97 | 0.0 | 0.0 | 0.00 | 0.00 | 0.00 | 68 | 1008.2 |
| 20260902073018 | 76 | 97 | 0.0 | 0.0 | 0.00 | 0.00 | 0.00 | 69 | 1008.2 |
| 20260902071515 | 76 | 97 | 0.0 | 0.0 | 0.00 | 0.00 | 0.00 | 67 | 1008.3 |
| 20260902070013 | 77 | 97 | 0.0 | 0.0 | 0.00 | 0.00 | 0.00 | 66 | 1008.2 |
| 20260902064512 | 78 | 97 | 0.0 | 0.0 | 0.00 | 0.00 | 0.00 | 63 | 1008.2 |
| 20260902063011 | 78 | 97 | 0.0 | 0.0 | 0.00 | 0.00 | 0.00 | 65 | 1008.0 |
| 20260902061518 | 78 | 97 | 0.0 | 0.0 | 0.00 | 0.00 | 0.00 | 62 | 1008.1 |
| 20260902060009 | 79 | 97 | 0.0 | 0.0 | 0.00 | 0.00 | 0.00 | 61 | 1008.2 |
| 20260902054509 | 81 | 97 | 0.0 | 0.0 | 0.00 | 0.00 | 0.00 | 57 | 1008.1 |
| 20260902053009 | 82 | 97 | 0.0 | 0.0 | 0.00 | 0.00 | 0.00 | 52 | 1008.2 |
| 20260902051508 | 82 | 97 | 0.0 | 1.7 | 0.00 | 0.00 | 0.00 | 51 | 1008.4 |
| 20260902050009 | 83 | 118 | 0.0 | 1.7 | 0.00 | 0.00 | 0.00 | 51 | 1008.3 |
| 20260902044520 | 83 | 98 | 0.0 | 0.9 | 0.00 | 0.00 | 0.00 | 50 | 1008.2 |
| 20260902043007 | 82 | 101 | 0.0 | 0.9 | 0.00 | 0.00 | 0.00 | 52 | 1008.1 |
| 20260902041505 | 82 | 98 | 0.0 | 0.9 | 0.00 | 0.00 | 0.00 | 53 | 1008.1 |
| 20260902040005 | 82 | 99 | 0.0 | 0.0 | 0.00 | 0.00 | 0.00 | 54 | 1007.9 |
| 20260902034505 | 83 | 99 | 0.0 | 1.7 | 0.00 | 0.00 | 0.00 | 50 | 1007.6 |
| 20260902033005 | 83 | 122 | 0.0 | 0.9 | 0.00 | 0.00 | 0.00 | 49 | 1007.3 |
| 20260902031504 | 84 | 124 | 0.0 | 0.9 | 0.00 | 0.00 | 0.00 | 51 | 1006.9 |
| 20260902030004 | 84 | 124 | 0.0 | 0.0 | 0.00 | 0.00 | 0.00 | 51 | 1006.6 |
| 20260902024503 | 85 | 125 | 0.0 | 0.0 | 0.00 | 0.00 | 0.00 | 49 | 1006.3 |
| 20260902023011 | 85 | 125 | 0.0 | 0.9 | 0.00 | 0.00 | 0.00 | 47 | 1006.2 |
| 20260902021502 | 87 | 129 | 0.0 | 1.7 | 0.00 | 0.00 | 0.00 | 45 | 1005.9 |
| 20260902020001 | 86 | 315 | 0.0 | 0.9 | 0.00 | 0.00 | 0.00 | 46 | 1005.8 |
| 20260902014500 | 87 | 297 | 0.0 | 1.7 | 0.00 | 0.00 | 0.00 | 45 | 1005.6 |
| 20260902013102 | 89 | 304 | 0.9 | 4.3 | 0.00 | 0.00 | 0.00 | 43 | 1005.6 |
| 20260902011631 | 90 | 314 | 1.7 | 5.2 | 0.00 | 0.00 | 0.00 | 42 | 1005.5 |
| 20260902010059 | 91 | 269 | 0.9 | 5.2 | 0.00 | 0.00 | 0.00 | 42 | 1005.4 |
| 20260902004558 | 91 | 269 | 1.7 | 6.1 | 0.00 | 0.00 | 0.00 | 42 | 1005.6 |
| 20260902003104 | 92 | 327 | 1.7 | 7.0 | 0.00 | 0.00 | 0.00 | 40 | 1005.7 |
| 20260902001558 | 92 | 349 | 1.7 | 6.1 | 0.00 | 0.00 | 0.00 | 40 | 1005.9 |
| 20260902000059 | 92 | 282 | 1.7 | 6.1 | 0.00 | 0.00 | 0.00 | 40 | 1006.0 |
| 20260901234600 | 92 | 321 | 1.7 | 8.7 | 0.00 | 0.00 | 0.00 | 39 | 1006.2 |
| 20260901233051 | 93 | 319 | 2.6 | 7.0 | 0.00 | 0.00 | 0.00 | 37 | 1006.3 |
| 20260901231606 | 93 | 289 | 1.7 | 4.3 | 0.00 | 0.00 | 0.00 | 38 | 1006.4 |
| 20260901230058 | 93 | 312 | 1.7 | 7.0 | 0.00 | 0.00 | 0.00 | 38 | 1006.6 |
| 20260901224546 | 93 | 262 | 2.6 | 7.0 | 0.00 | 0.00 | 0.00 | 36 | 1006.7 |
| 20260901223045 | 92 | 295 | 2.6 | 6.1 | 0.00 | 0.00 | 0.00 | 38 | 1006.8 |
| 20260901221606 | 93 | 307 | 3.5 | 7.0 | 0.00 | 0.00 | 0.00 | 37 | 1007.1 |
| 20260901220049 | 92 | 321 | 1.7 | 7.0 | 0.00 | 0.00 | 0.00 | 37 | 1007.3 |
| 20260901214538 | 91 | 336 | 2.6 | 7.8 | 0.00 | 0.02 | 0.00 | 39 | 1007.6 |
| 20260901213042 | 93 | 326 | 2.6 | 6.1 | 0.00 | 0.02 | 0.00 | 38 | 1007.9 |
| 20260901211533 | 92 | 330 | 1.7 | 4.3 | 0.00 | 0.02 | 0.00 | 38 | 1008.1 |
| 20260901210032 | 91 | 326 | 1.7 | 6.1 | 0.00 | 0.02 | 0.00 | 39 | 1008.3 |
| 20260901204529 | 90 | 94 | 1.7 | 7.0 | 0.00 | 0.12 | 0.00 | 38 | 1008.6 |
| 20260901203029 | 91 | 326 | 0.9 | 4.3 | 0.00 | 0.12 | 0.00 | 38 | 1008.8 |
| 20260901201524 | 91 | 243 | 0.9 | 4.3 | 0.00 | 0.12 | 0.00 | 39 | 1009.2 |
| 20260901200033 | 90 | 327 | 0.9 | 5.2 | 0.00 | 0.12 | 0.00 | 41 | 1009.3 |
| 20260901194522 | 92 | 316 | 0.9 | 5.2 | 0.00 | 0.18 | 0.00 | 38 | 1009.4 |
| 20260901193019 | 90 | 110 | 0.9 | 4.3 | 0.00 | 0.18 | 0.00 | 40 | 1009.7 |
| 20260901191523 | 88 | 325 | 1.7 | 4.3 | 0.00 | 0.18 | 0.00 | 43 | 1009.8 |
| 20260901190022 | 88 | 317 | 2.6 | 5.2 | 0.00 | 0.18 | 0.00 | 43 | 1010.1 |
| 20260901184514 | 87 | 307 | 1.7 | 6.1 | 0.00 | 0.23 | 0.00 | 45 | 1010.1 |
| 20260901183011 | 87 | 314 | 1.7 | 5.2 | 0.00 | 0.23 | 0.00 | 46 | 1010.4 |
| 20260901181516 | 86 | 318 | 1.7 | 5.2 | 0.00 | 0.23 | 0.00 | 46 | 1010.5 |
| 20260901180008 | 86 | 255 | 0.0 | 1.7 | 0.00 | 0.23 | 0.00 | 44 | 1010.5 |
| 20260901174507 | 86 | 309 | 0.9 | 2.6 | 0.00 | 0.23 | 0.00 | 45 | 1010.6 |
| 20260901173005 | 85 | 311 | 0.0 | 1.7 | 0.00 | 0.23 | 0.00 | 47 | 1010.8 |
| 20260901171505 | 85 | 300 | 0.9 | 2.6 | 0.00 | 0.23 | 0.00 | 47 | 1010.8 |
| 20260901170001 | 83 | 249 | 0.0 | 0.9 | 0.00 | 0.23 | 0.00 | 50 | 1010.7 |
| 20260901164617 | 82 | 265 | 0.0 | 1.7 | 0.00 | 0.23 | 0.00 | 54 | 1010.7 |